Temperature
16 13 13 14 14 15 15 14 12 11 11 10 8 5 5 6 6 5 4 4 4 3 3 2 2 2 1 0 -1 -2 -2 -2 -2 -2 -3 -3 -3 -4 -4 -5 -6 -6 -7 -7
13 14 15 14 15 15 15 14 12 11 11 10 8 5 5 6 5 5 5 4 4 3 3 2 2 1 0 -1 -2 -3 -3 -3 -3 -4 -4 -5 -5 -5 -6 -6 -7 -7 -8 -8
15 15 15 15 13 14 13 14 13 11 10 10 8 6 5 5 6 5 5 4 4 3 3 2 2 0 -1 -2 -3 -3 -3 -4 -4 -5 -5 -5 -5 -5 -6 -7 -7 -8 -8 -9
14 13 14 13 13 13 14 13 13 11 10 8 9 8 4 4 4 4 4 3 3 3 2 2 1 -1 -2 -3 -3 -3 -4 -4 -5 -5 -6 -7 -7 -7 -8 -8 -9 -9 -9 -9
13 13 13 14 14 13 13 13 12 12 11 9 8 8 5 4 4 3 3 3 2 2 2 1 -0 -1 -2 -3 -3 -4 -4 -5 -5 -6 -7 -7 -8 -8 -9 -9 -9 -9 -10 -10
13 14 14 13 13 13 13 12 11 9 8 10 9 7 6 3 3 2 2 2 2 2 1 1 -0 -1 -2 -3 -4 -4 -5 -5 -6 -7 -7 -8 -8 -9 -9 -10 -10 -10 -11 -11
14 14 13 13 13 12 11 11 10 11 10 10 9 7 6 3 3 3 2 2 2 1 1 0 -1 -2 -3 -4 -4 -5 -5 -6 -7 -7 -8 -8 -9 -9 -10 -10 -11 -11 -12 -12
14 13 13 12 12 12 12 12 11 12 10 9 9 8 4 4 4 4 3 2 1 1 1 -0 -2 -3 -4 -4 -5 -5 -6 -6 -7 -7 -8 -9 -9 -10 -10 -11 -12 -12 -12 -13
12 13 13 12 12 12 12 10 11 9 9 8 8 6 4 3 3 2 2 1 1 1 -0 -1 -2 -3 -4 -5 -5 -6 -6 -7 -7 -8 -9 -9 -10 -11 -11 -12 -12 -12 -13 -13
11 11 12 12 12 12 12 10 8 9 10 9 8 7 5 3 2 1 1 1 1 -0 -1 -2 -3 -4 -4 -5 -5 -6 -6 -7 -8 -9 -9 -10 -11 -11 -12 -12 -13 -13 -13 -13
11 11 11 11 12 13 12 12 10 8 8 8 8 8 6 3 2 1 1 1 0 -1 -2 -3 -4 -4 -5 -5 -5 -6 -7 -8 -8 -9 -10 -11 -11 -12 -12 -13 -13 -13 -13 -13
9 9 10 11 11 10 11 11 10 9 9 7 6 7 5 2 3 2 1 0 -0 -1 -3 -3 -4 -4 -4 -5 -5 -6 -7 -8 -9 -10 -10 -11 -12 -12 -13 -13 -13 -13 -13 -13
9 9 11 12 11 10 10 11 9 7 7 5 6 7 3 3 2 1 1 -0 -1 -2 -3 -3 -3 -4 -4 -5 -6 -7 -8 -9 -9 -10 -10 -11 -12 -13 -13 -13 -13 -13 -13 -13
9 8 10 13 12 11 10 10 9 7 6 5 5 6 3 1 -0 -0 -0 -1 -2 -3 -3 -3 -3 -4 -4 -5 -6 -7 -8 -9 -9 -10 -11 -11 -12 -13 -13 -13 -13 -13 -13 -13
8 8 9 9 9 9 9 9 8 7 6 6 6 6 5 2 1 0 -0 -1 -2 -3 -3 -3 -3 -4 -5 -6 -7 -8 -8 -9 -9 -10 -11 -12 -12 -13 -13 -13 -13 -13 -13 -13
7 8 8 8 9 8 8 8 7 7 6 6 6 5 4 2 1 -0 -1 -2 -2 -2 -3 -3 -4 -4 -5 -6 -7 -8 -8 -9 -9 -10 -11 -12 -12 -13 -13 -13 -13 -13 -13 -13
6 7 8 7 6 8 9 9 7 6 6 6 6 5 1 -0 -1 -1 -1 -2 -2 -2 -3 -3 -4 -5 -5 -6 -7 -8 -8 -8 -9 -10 -11 -12 -12 -13 -13 -13 -13 -13 -13 -13
6 6 5 5 7 11 11 8 7 7 7 6 6 3 2 1 0 -0 -1 -1 -2 -2 -3 -3 -4 -5 -6 -6 -7 -7 -8 -8 -9 -10 -11 -12 -12 -13 -13 -13 -13 -13 -13 -13
6 6 5 5 7 7 9 8 7 7 6 6 4 2 1 -0 -2 -3 -2 -2 -2 -2 -3 -4 -4 -5 -6 -6 -7 -7 -7 -8 -9 -10 -11 -11 -12 -13 -13 -13 -13 -13 -13 -13
4 4 4 4 7 9 11 8 8 7 6 6 4 1 -2 -2 -2 -2 -2 -2 -2 -3 -3 -4 -4 -5 -5 -6 -6 -7 -7 -8 -9 -10 -10 -11 -12 -12 -13 -13 -13 -13 -13 -13
5 4 4 4 5 7 8 7 7 7 8 7 5 3 0 -0 0 1 -1 -2 -2 -3 -3 -4 -4 -5 -5 -6 -6 -7 -7 -8 -9 -9 -10 -11 -12 -12 -13 -13 -13 -13 -13 -13
5 4 3 3 3 7 7 5 5 7 8 8 6 5 3 3 2 0 -1 -2 -2 -3 -4 -4 -4 -5 -5 -6 -6 -6 -7 -8 -8 -9 -9 -10 -11 -12 -12 -12 -13 -13 -13 -13
6 6 6 5 9 10 9 10 10 9 8 7 7 5 4 3 1 -0 -1 -2 -2 -3 -4 -4 -4 -5 -5 -6 -6 -6 -7 -7 -8 -8 -9 -10 -11 -11 -12 -12 -13 -13 -13 -13
6 7 6 5 7 9 9 10 9 8 8 7 6 5 4 3 1 -0 -1 -2 -2 -3 -3 -4 -4 -5 -5 -6 -6 -6 -7 -7 -8 -8 -9 -9 -10 -11 -11 -12 -12 -13 -13 -13
7 4 5 5 6 8 10 11 10 8 7 6 5 4 3 2 1 -0 -1 -2 -2 -3 -3 -4 -4 -4 -5 -5 -6 -6 -7 -7 -7 -8 -8 -9 -10 -10 -10 -11 -12 -12 -13 -13
6 7 7 10 12 10 13 13 10 8 6 6 5 3 2 2 1 -0 -1 -2 -2 -3 -3 -4 -4 -4 -5 -5 -6 -6 -7 -7 -7 -8 -8 -9 -10 -10 -10 -10 -10 -11 -12 -12
Wind_Speed
6 7 4 1 3 4 3 3 4 4 4 5 6 7 9 6 8 9 8 7 7 5 5 5 4 5 7 8 9 9 9 10 12 9 10 11 11 10 14 19 21 22 24 24
7 4 3 4 2 1 2 4 3 1 1 2 2 5 6 5 7 8 9 8 7 5 5 4 4 6 7 6 7 7 8 7 10 9 8 8 7 7 13 16 18 20 22 22
6 1 4 4 7 6 5 3 3 4 2 1 3 2 4 1 4 5 6 6 5 6 5 3 4 5 4 5 6 8 7 7 10 13 11 11 6 6 7 7 9 19 22 21
5 5 5 6 5 3 1 3 2 4 3 3 3 3 6 6 5 4 5 5 5 5 4 2 3 2 2 4 5 7 7 7 10 13 9 10 11 10 10 8 9 18 20 20
3 4 5 4 2 1 3 2 3 2 3 1 1 2 3 6 7 6 6 6 5 5 4 3 1 1 3 5 6 7 8 7 9 11 9 9 9 8 9 10 10 9 15 18
2 2 1 2 3 2 2 4 3 4 4 3 4 5 5 6 7 7 6 6 6 5 3 2 2 4 5 6 7 7 8 8 8 9 8 10 11 11 14 14 11 11 9 12
3 3 3 3 4 5 6 6 5 6 4 5 1 4 5 5 5 8 9 8 6 4 2 3 6 7 7 8 8 8 9 9 9 9 10 10 10 10 12 13 12 13 12 11
0 4 3 3 1 2 3 3 4 3 5 6 3 4 5 5 3 7 8 7 5 3 4 5 5 6 7 8 8 9 9 9 10 11 11 9 9 10 10 12 13 13 12 11
1 4 2 1 1 1 2 2 4 4 3 5 6 5 5 4 5 6 7 6 5 4 5 5 5 7 7 8 8 9 9 10 11 12 12 10 9 11 12 12 11 10 12 16
1 4 4 1 2 1 2 4 5 2 2 6 8 6 5 10 10 8 7 6 5 3 4 5 5 6 6 7 7 8 8 9 10 11 11 13 11 12 13 12 13 13 15 18
1 1 5 3 3 2 0 1 3 3 4 3 6 8 4 10 10 9 8 7 6 4 3 3 4 5 6 7 7 8 9 10 11 11 10 12 12 13 14 12 13 13 14 16
2 2 4 6 2 1 2 2 4 2 4 4 4 8 2 7 8 9 9 7 6 5 2 2 4 5 6 8 8 9 9 10 11 11 11 12 13 12 13 14 14 16 14 16
2 3 4 7 3 1 2 3 4 4 2 3 4 7 3 5 7 8 9 7 5 4 1 2 4 6 7 8 9 9 10 11 11 11 12 13 13 13 14 14 14 16 15 15
3 2 4 6 7 3 4 4 6 6 4 5 8 8 5 7 8 8 8 7 5 3 0 3 4 6 7 8 8 9 10 11 12 12 12 13 13 14 14 14 13 14 14 14
3 2 5 8 7 5 7 8 8 9 9 10 9 7 9 12 12 10 8 7 5 3 1 4 5 6 7 8 8 9 10 11 12 12 13 13 13 13 13 13 13 13 13 15
2 1 4 6 3 5 6 9 8 9 7 10 10 10 3 8 8 8 8 7 5 3 1 4 5 7 8 8 8 10 10 11 11 11 12 13 14 14 13 13 13 14 14 15
2 1 3 6 8 8 8 7 8 7 9 9 9 8 9 7 11 11 9 8 6 3 1 3 4 5 6 7 8 9 10 10 10 11 12 13 13 13 13 14 14 14 13 13
5 3 2 4 8 5 7 2 6 8 9 9 7 6 11 8 7 6 7 8 7 4 2 1 3 5 5 6 7 8 9 9 10 10 11 12 12 12 12 12 12 12 10 11
3 5 3 1 4 10 9 5 6 7 9 8 9 8 8 11 7 2 5 7 7 5 4 1 1 2 5 7 8 8 8 9 9 10 11 12 11 12 12 12 12 9 9 9
5 5 5 4 2 6 7 3 3 3 7 6 11 13 12 12 5 6 9 8 7 6 4 2 1 3 5 7 7 7 8 9 10 11 11 11 11 11 10 11 10 8 8 10
2 3 4 5 6 10 7 5 6 2 8 5 11 13 15 11 6 8 12 8 7 6 5 3 2 3 5 6 6 7 8 9 10 10 10 10 11 10 9 10 8 9 10 10
8 7 6 5 4 10 7 9 10 10 3 7 9 10 10 8 10 12 11 9 8 6 4 3 2 3 5 6 6 7 8 8 9 9 9 9 9 9 11 9 9 9 8 8
9 10 7 11 11 6 11 11 7 6 8 8 9 8 11 11 10 10 9 9 8 6 4 2 1 3 5 5 5 5 7 8 8 9 9 8 9 8 8 8 8 8 8 6
6 6 6 8 13 9 11 9 6 8 8 8 8 11 12 12 11 10 10 9 7 6 4 3 1 2 4 6 6 5 7 7 7 8 8 8 7 8 8 7 7 7 7 6
8 8 6 9 10 7 8 11 10 8 8 9 9 9 12 15 12 11 10 9 8 6 4 3 1 1 4 5 6 6 7 7 7 8 8 8 8 7 7 8 7 9 6 10
8 10 10 11 11 9 8 8 13 12 11 13 12 10 10 12 13 12 10 9 8 6 5 3 3 2 3 4 5 6 6 6 6 7 7 6 6 7 7 7 8 13 14 17
Wind_Direction
28 65 65 270 237 226 222 182 180 206 184 177 184 168 188 165 135 146 153 154 149 139 121 104 76 58 42 27 14 4 353 346 351 352 353 350 347 344 345 348 347 348 348 346
46 50 275 289 331 28 104 115 140 207 206 175 144 170 181 162 163 167 163 162 151 124 106 95 58 45 36 16 356 354 348 341 347 346 339 336 327 323 333 334 339 345 345 343
112 276 313 62 40 47 52 105 182 205 184 105 117 96 174 174 151 142 141 149 138 118 109 86 49 43 19 355 345 359 344 338 341 342 341 342 327 322 333 332 337 340 339 338
70 1 42 65 49 47 262 208 193 160 152 256 177 272 200 193 184 160 151 137 120 109 119 102 57 33 356 337 342 347 339 333 336 340 342 345 345 337 333 331 326 329 333 334
33 15 41 41 334 309 263 254 226 174 172 307 220 221 266 172 203 198 183 162 142 139 137 103 77 37 6 352 348 340 334 329 332 336 334 334 331 325 326 327 324 323 327 330
61 5 66 300 296 266 315 36 68 58 77 300 218 183 244 205 213 181 175 169 161 159 135 93 46 24 2 352 344 337 334 330 330 332 330 329 327 327 330 332 329 330 326 327
359 337 356 3 355 9 42 52 19 354 356 271 176 182 248 226 205 169 168 175 171 156 111 48 28 8 353 346 339 334 334 334 335 335 335 330 328 326 326 329 330 329 329 328
289 295 309 14 77 325 340 117 128 267 268 291 332 252 252 232 174 138 148 156 152 121 71 49 27 3 348 342 339 338 340 340 341 343 340 331 333 333 331 329 329 327 326 322
106 278 291 247 13 145 61 112 164 157 291 285 282 281 286 235 180 153 153 145 136 99 67 46 17 2 349 342 341 340 344 345 346 345 340 340 338 334 331 328 326 325 323 324
135 294 296 289 2 261 164 150 94 128 294 293 292 274 237 207 208 185 173 160 145 109 66 36 9 353 343 339 336 341 348 345 340 340 340 343 332 329 327 325 323 322 321 321
116 222 307 330 236 264 211 195 143 139 176 217 287 276 224 192 183 178 176 165 156 127 80 21 351 340 337 339 342 347 347 343 340 336 332 329 326 324 323 321 319 318 318 319
58 123 284 269 216 177 242 212 155 190 267 210 241 277 78 152 153 153 156 156 149 123 95 6 341 339 343 345 347 349 345 340 336 332 330 328 325 323 322 321 319 319 318 320
61 119 341 345 342 220 218 201 157 132 132 211 229 267 112 121 130 143 150 153 146 131 92 347 345 346 346 347 348 346 341 337 334 334 333 329 326 326 325 323 322 322 322 322
109 156 197 238 258 263 242 214 177 150 199 238 235 251 192 182 163 159 159 159 158 160 60 353 350 347 345 345 344 341 338 336 338 337 333 331 329 328 326 325 325 327 328 328
112 231 258 263 279 270 245 232 206 198 203 219 245 241 229 194 178 171 166 166 169 176 9 3 356 348 344 345 342 339 335 336 337 335 335 334 331 330 329 330 332 333 336 340
112 241 321 296 325 311 268 247 224 224 221 237 258 263 201 132 131 151 168 173 179 180 42 7 356 348 345 342 337 335 333 334 334 333 332 332 335 336 336 337 341 342 343 341
145 65 2 293 319 337 297 243 195 215 217 207 229 230 145 153 170 175 179 180 177 161 93 12 348 336 333 332 329 329 328 329 332 331 331 334 336 338 338 343 346 345 342 342
142 118 111 313 351 303 256 183 198 223 245 218 215 175 169 158 145 151 165 171 171 157 132 359 336 331 329 325 326 325 326 329 331 332 334 337 339 339 339 343 345 341 339 343
111 137 123 93 297 279 292 231 202 214 272 211 184 153 126 119 104 174 187 170 169 158 149 157 330 319 323 328 328 330 331 332 335 339 340 339 340 341 343 347 344 339 337 341
61 90 125 143 241 260 259 167 129 85 280 211 164 157 154 149 169 219 178 163 156 145 135 119 35 349 342 332 333 338 337 340 344 341 339 339 343 342 343 344 339 337 338 346
117 106 165 187 233 265 249 155 129 191 262 173 162 162 166 183 188 152 149 153 152 142 132 111 68 10 332 325 336 344 340 343 336 335 337 341 342 339 345 340 335 336 344 344
179 174 195 165 214 260 191 147 188 218 140 149 156 155 154 143 126 139 149 153 151 144 135 113 66 2 328 330 343 344 340 329 329 334 338 338 339 344 352 335 334 336 338 337
199 194 188 194 223 242 176 200 205 157 163 167 155 148 138 140 151 155 157 157 155 153 150 136 82 356 333 335 339 338 324 326 333 337 336 332 336 337 339 332 333 337 340 339
244 184 198 246 262 248 221 228 199 180 174 162 149 148 151 153 158 159 160 161 161 161 159 159 99 15 339 329 332 320 316 326 334 335 331 331 335 337 334 339 342 341 339 340
224 179 216 254 270 286 253 218 192 167 145 138 137 149 155 151 158 164 165 167 168 164 164 167 162 289 309 318 322 321 322 328 333 329 327 330 340 332 332 340 338 342 331 350
197 186 195 233 226 205 235 205 171 160 163 158 147 145 152 158 162 162 165 166 165 167 172 182 206 253 297 313 314 314 315 321 329 333 330 324 329 335 336 330 333 345 351 351
Height
1579 1585 1592 1590 1590 1589 1590 1592 1598 1601 1600 1603 1608 1613 1615 1616 1618 1619 1620 1620 1619 1618 1617 1615 1612 1609 1606 1601 1595 1589 1583 1577 1571 1564 1558 1551 1546 1541 1536 1531 1525 1519 1513 1508
1586 1591 1589 1588 1587 1586 1587 1594 1600 1601 1600 1602 1608 1613 1615 1616 1617 1618 1618 1618 1618 1617 1616 1614 1611 1608 1604 1599 1594 1588 1582 1575 1569 1563 1557 1551 1545 1539 1533 1528 1522 1517 1511 1505
1589 1591 1587 1588 1590 1590 1593 1593 1596 1599 1602 1603 1608 1615 1618 1617 1617 1618 1618 1617 1617 1616 1615 1613 1610 1606 1602 1597 1591 1586 1580 1574 1568 1561 1555 1548 1542 1535 1529 1523 1518 1513 1508 1502
1591 1590 1589 1591 1592 1592 1593 1592 1593 1596 1602 1606 1605 1612 1619 1617 1617 1617 1617 1616 1616 1615 1613 1611 1608 1604 1600 1595 1590 1584 1578 1572 1566 1560 1553 1545 1538 1531 1525 1520 1514 1509 1504 1498
1594 1592 1592 1592 1592 1591 1592 1591 1592 1593 1597 1603 1605 1610 1614 1616 1616 1615 1615 1615 1614 1614 1612 1609 1606 1602 1598 1594 1588 1583 1577 1571 1564 1558 1551 1544 1537 1531 1524 1517 1511 1505 1500 1494
1594 1592 1592 1592 1591 1590 1590 1593 1594 1599 1603 1605 1600 1610 1606 1614 1610 1611 1613 1613 1613 1612 1610 1608 1605 1601 1597 1592 1586 1581 1574 1568 1562 1555 1549 1542 1535 1527 1520 1513 1506 1500 1495 1489
1596 1594 1593 1592 1592 1592 1593 1599 1606 1602 1607 1602 1597 1603 1604 1607 1606 1607 1609 1611 1611 1610 1608 1606 1603 1599 1595 1590 1584 1578 1572 1566 1559 1553 1546 1539 1532 1525 1518 1510 1503 1496 1490 1484
1599 1600 1594 1593 1595 1596 1596 1598 1608 1611 1612 1605 1597 1599 1608 1606 1606 1606 1608 1609 1609 1608 1607 1604 1601 1597 1593 1588 1582 1576 1569 1563 1557 1550 1543 1537 1530 1522 1515 1508 1501 1494 1487 1481
1603 1600 1594 1594 1594 1595 1595 1601 1601 1610 1610 1612 1602 1604 1608 1605 1606 1607 1607 1608 1607 1607 1605 1603 1600 1596 1591 1586 1580 1574 1567 1561 1554 1547 1540 1533 1526 1519 1512 1505 1498 1491 1485 1478
1603 1604 1596 1594 1594 1595 1596 1599 1607 1608 1610 1611 1603 1598 1602 1603 1603 1605 1605 1606 1606 1605 1603 1601 1598 1594 1589 1584 1579 1573 1566 1560 1553 1546 1538 1531 1524 1517 1510 1503 1496 1489 1483 1476
1601 1605 1600 1597 1596 1594 1596 1597 1600 1609 1612 1614 1610 1596 1590 1592 1595 1600 1602 1604 1604 1603 1602 1599 1596 1592 1588 1583 1577 1570 1564 1557 1550 1543 1536 1529 1521 1515 1508 1501 1494 1488 1481 1474
1604 1607 1607 1598 1595 1595 1595 1595 1600 1607 1607 1612 1615 1600 1590 1590 1593 1597 1600 1602 1602 1602 1600 1597 1594 1590 1585 1580 1574 1569 1562 1555 1548 1541 1534 1527 1520 1513 1506 1500 1493 1486 1479 1472
1604 1607 1606 1598 1600 1597 1595 1594 1597 1604 1609 1614 1612 1596 1594 1593 1594 1596 1598 1600 1600 1599 1597 1595 1592 1587 1583 1578 1573 1567 1561 1554 1547 1539 1532 1525 1518 1512 1505 1498 1492 1485 1478 1470
1604 1607 1606 1601 1596 1593 1594 1594 1595 1601 1609 1610 1603 1591 1593 1593 1594 1595 1596 1597 1598 1597 1595 1592 1589 1585 1581 1577 1572 1566 1559 1553 1545 1538 1531 1524 1518 1511 1505 1498 1491 1484 1477 1469
1604 1606 1603 1598 1595 1594 1593 1593 1593 1596 1597 1600 1589 1586 1583 1585 1588 1591 1593 1595 1595 1594 1592 1590 1587 1584 1580 1576 1571 1565 1558 1551 1544 1537 1530 1524 1518 1511 1504 1497 1490 1484 1477 1470
1604 1605 1603 1599 1594 1594 1592 1588 1590 1591 1590 1589 1584 1582 1578 1580 1585 1589 1591 1592 1592 1591 1590 1588 1586 1582 1579 1574 1569 1563 1557 1550 1544 1537 1530 1524 1517 1511 1504 1497 1491 1484 1477 1471
1605 1605 1605 1604 1599 1592 1586 1579 1584 1583 1580 1579 1579 1576 1578 1581 1583 1585 1588 1589 1589 1588 1587 1586 1584 1581 1577 1573 1568 1562 1556 1550 1543 1537 1530 1524 1517 1511 1504 1498 1492 1485 1478 1472
1604 1607 1611 1612 1603 1592 1577 1574 1575 1575 1571 1570 1569 1570 1573 1576 1580 1583 1585 1586 1586 1586 1586 1584 1582 1580 1576 1572 1568 1562 1556 1549 1543 1536 1530 1524 1517 1511 1505 1499 1493 1486 1480 1474
1602 1606 1613 1615 1608 1596 1577 1572 1572 1574 1569 1563 1565 1568 1573 1575 1579 1582 1582 1583 1584 1584 1584 1582 1580 1578 1575 1571 1566 1561 1555 1549 1542 1536 1530 1524 1518 1512 1506 1500 1494 1488 1482 1477
1604 1606 1614 1617 1608 1594 1570 1569 1568 1572 1570 1558 1559 1564 1569 1574 1580 1577 1578 1580 1581 1582 1581 1580 1578 1576 1574 1570 1565 1560 1554 1548 1542 1536 1531 1525 1519 1513 1507 1502 1496 1491 1485 1480
1607 1610 1613 1613 1611 1587 1567 1567 1570 1575 1561 1553 1555 1558 1563 1567 1569 1571 1574 1577 1578 1579 1579 1578 1576 1574 1572 1568 1564 1559 1554 1548 1543 1538 1532 1526 1520 1514 1509 1503 1498 1493 1487 1482
1597 1605 1609 1613 1612 1585 1562 1564 1565 1557 1550 1551 1553 1556 1560 1563 1566 1568 1571 1574 1576 1577 1576 1576 1574 1573 1570 1567 1564 1559 1554 1549 1544 1539 1533 1527 1521 1515 1510 1504 1499 1494 1489 1484
1585 1581 1582 1584 1569 1551 1551 1548 1548 1547 1548 1549 1551 1555 1558 1560 1563 1566 1568 1571 1573 1574 1574 1574 1573 1571 1569 1566 1562 1558 1554 1549 1545 1540 1534 1528 1523 1517 1511 1505 1499 1494 1490 1485
1572 1569 1571 1569 1552 1545 1545 1544 1544 1544 1545 1547 1549 1552 1555 1557 1560 1563 1566 1568 1570 1571 1571 1571 1571 1569 1567 1565 1561 1557 1553 1549 1545 1540 1534 1529 1523 1518 1512 1506 1500 1495 1490 1486
1562 1564 1564 1559 1545 1540 1536 1536 1537 1540 1542 1544 1547 1550 1552 1555 1557 1560 1562 1565 1567 1568 1569 1569 1568 1567 1565 1563 1560 1557 1553 1549 1545 1540 1535 1529 1524 1519 1514 1508 1503 1497 1492 1489
1549 1550 1552 1544 1533 1534 1531 1531 1532 1534 1536 1539 1543 1546 1549 1552 1554 1557 1559 1562 1564 1565 1566 1566 1566 1565 1563 1561 1559 1556 1552 1548 1544 1539 1535 1530 1525 1520 1515 1510 1505 1500 1494 1489